SAS402 ESSA-EDDB

Flight info

Callsign SAS402
Flight time 1h 29m
Altitude 38000
Route PETEV N872 ELPAX DCT BIKRU/N0457F390 DCT RODEP T280 KETAP KETAP1R
Aircraft A20N/M-SDE3FGIJ1RWXY/ALB1

Departure

Time 2026-05-07 19:04
Airport Stockholm-Arlanda Airport (ESSA)

Arrival

Time 2026-05-07 20:33
Airport Berlin Brandenburg Airport (EDDB)
Time Latitude Longitude Altitude Speed Heading
2026-05-07 17:52 59.65388 17.93046 110 ft 0 kts 188°
2026-05-07 18:43 59.65399 17.93050 110 ft 2 kts 191°
2026-05-07 18:43 59.65414 17.93055 110 ft 2 kts 205°
2026-05-07 18:43 59.65426 17.93073 110 ft 2 kts 229°
2026-05-07 18:43 59.65433 17.93096 110 ft 1 kts 251°
2026-05-07 18:44 59.65435 17.93108 110 ft 1 kts 256°
2026-05-07 18:44 59.65435 17.93112 110 ft 0 kts 255°
2026-05-07 18:53 59.65433 17.93092 110 ft 2 kts 255°
2026-05-07 18:53 59.65426 17.93039 110 ft 5 kts 257°
2026-05-07 18:54 59.65438 17.92963 109 ft 7 kts 314°
2026-05-07 18:54 59.65465 17.92865 109 ft 9 kts 268°
2026-05-07 18:54 59.65443 17.92737 108 ft 10 kts 242°
2026-05-07 18:54 59.65441 17.92625 108 ft 8 kts 309°
2026-05-07 18:55 59.65499 17.92551 108 ft 10 kts 333°
2026-05-07 18:55 59.65574 17.92500 107 ft 12 kts 346°
2026-05-07 18:55 59.65659 17.92460 108 ft 12 kts 347°
2026-05-07 18:55 59.65748 17.92422 108 ft 13 kts 356°
2026-05-07 18:56 59.65839 17.92444 109 ft 13 kts 10°
2026-05-07 18:56 59.65930 17.92476 110 ft 13 kts 10°
2026-05-07 18:56 59.66020 17.92509 111 ft 13 kts 11°
2026-05-07 18:56 59.66108 17.92544 113 ft 12 kts 12°
2026-05-07 18:57 59.66192 17.92580 114 ft 12 kts 12°
2026-05-07 18:57 59.66274 17.92616 116 ft 12 kts 13°
2026-05-07 18:57 59.66354 17.92652 117 ft 11 kts 13°
2026-05-07 18:57 59.66433 17.92654 118 ft 11 kts 354°
2026-05-07 18:58 59.66504 17.92624 120 ft 7 kts 342°
2026-05-07 18:58 59.66532 17.92606 120 ft 0 kts 342°
2026-05-07 18:58 59.66533 17.92606 120 ft 0 kts 342°
2026-05-07 19:00 59.66534 17.92604 120 ft 0 kts 342°
2026-05-07 19:01 59.66557 17.92589 120 ft 5 kts 341°
2026-05-07 19:01 59.66597 17.92553 121 ft 6 kts 321°
2026-05-07 19:01 59.66617 17.92460 121 ft 8 kts 271°
2026-05-07 19:01 59.66590 17.92363 120 ft 6 kts 210°
2026-05-07 19:02 59.66570 17.92350 120 ft 0 kts 193°
2026-05-07 19:03 59.66462 17.92306 118 ft 49 kts 189°
2026-05-07 19:03 59.65855 17.92096 109 ft 123 kts 190°
2026-05-07 19:04 59.64821 17.91711 117 ft 178 kts 189°
2026-05-07 19:04 59.63557 17.91205 635 ft 189 kts 189°
2026-05-07 19:04 59.62255 17.90679 1414 ft 195 kts 188°
2026-05-07 19:04 59.60989 17.89767 2177 ft 205 kts 214°
2026-05-07 19:05 59.60238 17.87405 2866 ft 216 kts 256°
2026-05-07 19:05 59.59981 17.84405 3429 ft 229 kts 256°
2026-05-07 19:05 59.59228 17.81497 3959 ft 244 kts 233°
2026-05-07 19:05 59.58232 17.78804 4611 ft 250 kts 237°
2026-05-07 19:06 59.57252 17.75802 4956 ft 266 kts 238°
2026-05-07 19:06 59.54842 17.70086 6160 ft 278 kts 228°
2026-05-07 19:06 59.53531 17.67441 7201 ft 275 kts 228°
2026-05-07 19:07 59.52204 17.64761 8140 ft 277 kts 229°
2026-05-07 19:07 59.50861 17.62039 8958 ft 283 kts 229°
2026-05-07 19:07 59.49480 17.59228 9694 ft 291 kts 229°
2026-05-07 19:07 59.48070 17.56360 10563 ft 293 kts 230°
2026-05-07 19:08 59.46661 17.53495 11443 ft 296 kts 230°
2026-05-07 19:08 59.45240 17.50606 12230 ft 299 kts 230°
2026-05-07 19:08 59.43803 17.47688 13038 ft 302 kts 230°
2026-05-07 19:08 59.42340 17.44720 13799 ft 305 kts 230°
2026-05-07 19:09 59.40868 17.41738 14621 ft 308 kts 230°
2026-05-07 19:09 59.39379 17.38725 15385 ft 310 kts 231°
2026-05-07 19:09 59.37864 17.35664 15964 ft 319 kts 231°
2026-05-07 19:09 59.36292 17.32479 16279 ft 335 kts 230°
2026-05-07 19:10 59.34619 17.29096 16579 ft 351 kts 230°
2026-05-07 19:10 59.32890 17.25616 17047 ft 361 kts 230°
2026-05-07 19:10 59.31155 17.22136 17694 ft 364 kts 230°
2026-05-07 19:10 59.29386 17.18599 18359 ft 366 kts 230°
2026-05-07 19:11 59.27608 17.15044 18982 ft 369 kts 230°
2026-05-07 19:11 59.25802 17.11436 19607 ft 371 kts 230°
2026-05-07 19:11 59.24014 17.07867 20205 ft 374 kts 230°
2026-05-07 19:11 59.22178 17.04209 20797 ft 377 kts 229°
2026-05-07 19:12 59.20301 17.00708 21385 ft 381 kts 226°
2026-05-07 19:12 59.18269 16.97334 21974 ft 384 kts 224°
2026-05-07 19:12 59.16213 16.93987 22526 ft 387 kts 224°
2026-05-07 19:12 59.14167 16.90654 23077 ft 389 kts 224°
2026-05-07 19:13 59.12086 16.87273 23600 ft 392 kts 224°
2026-05-07 19:13 59.09987 16.83869 24125 ft 394 kts 224°
2026-05-07 19:13 59.07876 16.80456 24646 ft 397 kts 224°
2026-05-07 19:13 59.05764 16.77046 25131 ft 399 kts 225°
2026-05-07 19:14 59.03646 16.73629 25560 ft 403 kts 225°
2026-05-07 19:14 59.01480 16.70138 26004 ft 406 kts 225°
2026-05-07 19:14 58.99297 16.66627 26472 ft 409 kts 225°
2026-05-07 19:14 58.97105 16.63107 26882 ft 412 kts 225°
2026-05-07 19:15 58.94897 16.59567 27276 ft 416 kts 225°
2026-05-07 19:15 58.92672 16.56011 27673 ft 419 kts 225°
2026-05-07 19:15 58.90424 16.52425 28054 ft 421 kts 225°
2026-05-07 19:15 58.88152 16.48809 28407 ft 424 kts 225°
2026-05-07 19:16 58.85892 16.45218 28745 ft 427 kts 225°
2026-05-07 19:16 58.83601 16.41583 29055 ft 429 kts 225°
2026-05-07 19:16 58.81273 16.37896 29340 ft 432 kts 225°
2026-05-07 19:16 58.78944 16.34210 29633 ft 435 kts 224°
2026-05-07 19:17 58.76695 16.30656 29894 ft 437 kts 224°
2026-05-07 19:17 58.74323 16.26917 30165 ft 439 kts 224°
2026-05-07 19:17 58.71970 16.23220 30437 ft 440 kts 224°
2026-05-07 19:17 58.69606 16.19517 30792 ft 440 kts 224°
2026-05-07 19:18 58.67250 16.15832 31152 ft 438 kts 224°
2026-05-07 19:18 58.64899 16.12160 31473 ft 437 kts 224°
2026-05-07 19:18 58.62550 16.08489 31748 ft 438 kts 224°
2026-05-07 19:18 58.60164 16.04770 32019 ft 438 kts 224°
2026-05-07 19:19 58.57816 16.01116 32307 ft 438 kts 224°
2026-05-07 19:19 58.55456 15.97453 32602 ft 438 kts 224°
2026-05-07 19:19 58.53104 15.93803 32882 ft 438 kts 224°
2026-05-07 19:19 58.50741 15.90143 33145 ft 438 kts 224°
2026-05-07 19:20 58.48390 15.86509 33424 ft 437 kts 224°
2026-05-07 19:20 58.46036 15.82875 33691 ft 437 kts 224°
2026-05-07 19:20 58.43681 15.79252 33944 ft 437 kts 224°
2026-05-07 19:20 58.41318 15.75624 34201 ft 437 kts 224°
2026-05-07 19:21 58.38953 15.71991 34447 ft 437 kts 223°
2026-05-07 19:21 58.36616 15.68416 34647 ft 438 kts 223°
2026-05-07 19:21 58.34238 15.64782 34879 ft 438 kts 223°
2026-05-07 19:21 58.31860 15.61155 35086 ft 437 kts 223°
2026-05-07 19:22 58.29525 15.57592 35275 ft 436 kts 223°
2026-05-07 19:22 58.27162 15.53998 35466 ft 436 kts 223°
2026-05-07 19:22 58.24799 15.50408 35659 ft 435 kts 223°
2026-05-07 19:22 58.22448 15.46841 35844 ft 434 kts 223°
2026-05-07 19:23 58.20100 15.43291 36012 ft 433 kts 223°
2026-05-07 19:23 58.17747 15.39734 36109 ft 434 kts 222°
2026-05-07 19:23 58.12808 15.33176 36205 ft 439 kts 213°
2026-05-07 19:24 58.10129 15.30406 36356 ft 440 kts 209°
2026-05-07 19:24 58.07319 15.28000 36499 ft 441 kts 205°
2026-05-07 19:24 58.04437 15.26017 36659 ft 443 kts 200°
2026-05-07 19:24 58.01506 15.24464 36807 ft 445 kts 196°
2026-05-07 19:25 57.98450 15.23254 36963 ft 446 kts 194°
2026-05-07 19:25 57.95432 15.22124 37103 ft 446 kts 194°
2026-05-07 19:25 57.89333 15.19842 37130 ft 448 kts 194°
2026-05-07 19:26 57.83238 15.17560 37125 ft 448 kts 194°
2026-05-07 19:26 57.77187 15.15303 37118 ft 448 kts 194°
2026-05-07 19:27 57.71082 15.13031 37125 ft 448 kts 193°
2026-05-07 19:27 57.64975 15.10768 37122 ft 448 kts 193°
2026-05-07 19:28 57.58880 15.08515 37127 ft 449 kts 193°
2026-05-07 19:28 57.52780 15.06269 37145 ft 450 kts 193°
2026-05-07 19:29 57.49734 15.05151 37283 ft 449 kts 193°
2026-05-07 19:29 57.46692 15.04035 37447 ft 448 kts 193°
2026-05-07 19:29 57.43616 15.02913 37607 ft 448 kts 193°
2026-05-07 19:29 57.40572 15.01798 37736 ft 448 kts 193°
2026-05-07 19:30 57.34472 14.99572 37935 ft 448 kts 193°
2026-05-07 19:30 57.28368 14.97354 38117 ft 449 kts 193°
2026-05-07 19:31 57.22285 14.95153 38124 ft 450 kts 193°
2026-05-07 19:31 57.16160 14.92941 38122 ft 450 kts 193°
2026-05-07 19:32 57.10053 14.90745 38124 ft 450 kts 193°
2026-05-07 19:32 57.03930 14.88550 38111 ft 450 kts 192°
2026-05-07 19:33 56.97799 14.86363 38130 ft 449 kts 193°
2026-05-07 19:33 56.91661 14.84179 38133 ft 449 kts 193°
2026-05-07 19:34 56.85569 14.82013 38120 ft 450 kts 193°
2026-05-07 19:34 56.79453 14.79850 38125 ft 450 kts 192°
2026-05-07 19:35 56.73318 14.77688 38120 ft 450 kts 192°
2026-05-07 19:35 56.67208 14.75540 38100 ft 450 kts 192°
2026-05-07 19:36 56.61062 14.73389 38113 ft 451 kts 192°
2026-05-07 19:36 56.54930 14.71249 38113 ft 451 kts 192°
2026-05-07 19:37 56.48793 14.69116 38115 ft 451 kts 192°
2026-05-07 19:37 56.42640 14.66981 38113 ft 451 kts 192°
2026-05-07 19:38 56.36516 14.64864 38113 ft 451 kts 192°
2026-05-07 19:38 56.30348 14.62740 38122 ft 451 kts 192°
2026-05-07 19:39 56.24231 14.60638 38122 ft 451 kts 192°
2026-05-07 19:39 56.18089 14.58537 38125 ft 451 kts 192°
2026-05-07 19:40 56.11956 14.56446 38117 ft 452 kts 192°
2026-05-07 19:40 56.05786 14.54348 38109 ft 452 kts 192°
2026-05-07 19:41 55.99619 14.52258 38132 ft 452 kts 192°
2026-05-07 19:41 55.93481 14.50186 38136 ft 452 kts 192°
2026-05-07 19:42 55.87348 14.48119 38122 ft 451 kts 192°
2026-05-07 19:42 55.81186 14.46052 38114 ft 450 kts 192°
2026-05-07 19:43 55.75045 14.43998 38130 ft 451 kts 192°
2026-05-07 19:43 55.68923 14.41956 38140 ft 451 kts 192°
2026-05-07 19:44 55.62770 14.39909 38127 ft 452 kts 192°
2026-05-07 19:44 55.56593 14.37863 38122 ft 451 kts 192°
2026-05-07 19:45 55.50446 14.35830 38119 ft 451 kts 192°
2026-05-07 19:45 55.44300 14.33807 38135 ft 451 kts 191°
2026-05-07 19:46 55.38155 14.31789 38126 ft 451 kts 191°
2026-05-07 19:46 55.32004 14.29777 38131 ft 451 kts 191°
2026-05-07 19:47 55.25873 14.27778 38175 ft 451 kts 191°
2026-05-07 19:47 55.19723 14.25775 38139 ft 452 kts 191°
2026-05-07 19:48 55.13576 14.23781 38137 ft 452 kts 191°
2026-05-07 19:48 55.07397 14.21783 38141 ft 452 kts 191°
2026-05-07 19:49 55.01228 14.19793 38328 ft 451 kts 191°
2026-05-07 19:49 54.95099 14.17824 38523 ft 450 kts 191°
2026-05-07 19:50 54.88996 14.15809 38697 ft 449 kts 192°
2026-05-07 19:50 54.82894 14.13582 38860 ft 449 kts 193°
2026-05-07 19:51 54.76777 14.11344 39004 ft 450 kts 193°
2026-05-07 19:51 54.70674 14.09128 39135 ft 450 kts 192°
2026-05-07 19:52 54.64592 14.06931 39142 ft 450 kts 192°
2026-05-07 19:52 54.58464 14.04729 39141 ft 450 kts 192°
2026-05-07 19:53 54.52356 14.02542 39142 ft 450 kts 192°
2026-05-07 19:53 54.46280 14.00373 39143 ft 450 kts 192°
2026-05-07 19:54 54.40160 13.98195 39142 ft 450 kts 192°
2026-05-07 19:54 54.34076 13.96035 39131 ft 448 kts 192°
2026-05-07 19:55 54.31019 13.94953 38925 ft 444 kts 192°
2026-05-07 19:55 54.28008 13.93888 38411 ft 443 kts 192°
2026-05-07 19:55 54.24996 13.92820 37758 ft 446 kts 192°
2026-05-07 19:55 54.21961 13.91745 37087 ft 449 kts 192°
2026-05-07 19:56 54.18950 13.90684 36491 ft 450 kts 192°
2026-05-07 19:56 54.15882 13.89605 35907 ft 450 kts 192°
2026-05-07 19:56 54.12850 13.88542 35328 ft 450 kts 191°
2026-05-07 19:56 54.09797 13.87472 34688 ft 452 kts 191°
2026-05-07 19:57 54.06709 13.86392 34020 ft 454 kts 191°
2026-05-07 19:57 54.03653 13.85329 33365 ft 456 kts 191°
2026-05-07 19:57 54.00542 13.84246 32705 ft 457 kts 192°
2026-05-07 19:57 53.97456 13.83172 31954 ft 458 kts 192°
2026-05-07 19:58 53.94320 13.82081 31144 ft 459 kts 192°
2026-05-07 19:58 53.91217 13.81003 30160 ft 461 kts 192°
2026-05-07 19:58 53.88104 13.79921 29180 ft 462 kts 192°
2026-05-07 19:58 53.84944 13.78825 28315 ft 460 kts 192°
2026-05-07 19:59 53.81837 13.77748 27569 ft 455 kts 192°
2026-05-07 19:59 53.78799 13.76697 26882 ft 451 kts 192°
2026-05-07 19:59 53.75727 13.75636 26185 ft 446 kts 192°
2026-05-07 19:59 53.72701 13.74596 25472 ft 443 kts 192°
2026-05-07 20:00 53.69717 13.73659 24795 ft 440 kts 189°
2026-05-07 20:00 53.66695 13.73029 24068 ft 438 kts 185°
2026-05-07 20:00 53.63685 13.72691 23454 ft 434 kts 184°
2026-05-07 20:00 53.60698 13.72388 22884 ft 430 kts 184°
2026-05-07 20:01 53.57733 13.72085 22330 ft 425 kts 184°
2026-05-07 20:01 53.54807 13.71785 21793 ft 421 kts 184°
2026-05-07 20:01 53.51909 13.71490 21263 ft 416 kts 184°
2026-05-07 20:01 53.49062 13.71200 20747 ft 412 kts 184°
2026-05-07 20:02 53.46222 13.70912 20228 ft 408 kts 184°
2026-05-07 20:02 53.43398 13.70625 19711 ft 404 kts 184°
2026-05-07 20:02 53.40615 13.70342 19193 ft 401 kts 184°
2026-05-07 20:02 53.37850 13.70062 18677 ft 397 kts 184°
2026-05-07 20:03 53.35113 13.69784 18169 ft 394 kts 184°
2026-05-07 20:03 53.32413 13.69510 17664 ft 391 kts 184°
2026-05-07 20:03 53.29707 13.69236 17152 ft 389 kts 184°
2026-05-07 20:03 53.27029 13.68964 16644 ft 386 kts 184°
2026-05-07 20:04 53.24357 13.68694 16135 ft 383 kts 184°
2026-05-07 20:04 53.21700 13.68426 15627 ft 380 kts 184°
2026-05-07 20:04 53.19105 13.68164 15130 ft 378 kts 184°
2026-05-07 20:04 53.16486 13.67901 14629 ft 375 kts 184°
2026-05-07 20:05 53.13880 13.67640 14123 ft 373 kts 183°
2026-05-07 20:05 53.11287 13.67381 13629 ft 370 kts 183°
2026-05-07 20:05 53.08736 13.67127 13141 ft 367 kts 183°
2026-05-07 20:05 53.06189 13.66873 12650 ft 365 kts 183°
2026-05-07 20:06 53.03685 13.66623 12165 ft 362 kts 183°
2026-05-07 20:06 53.01203 13.66376 11683 ft 360 kts 183°
2026-05-07 20:06 52.98698 13.66126 11193 ft 358 kts 183°
2026-05-07 20:06 52.96222 13.65879 10724 ft 354 kts 184°
2026-05-07 20:07 52.93834 13.65138 10366 ft 347 kts 203°
2026-05-07 20:07 52.91930 13.62901 10069 ft 336 kts 230°
2026-05-07 20:07 52.90706 13.59733 10089 ft 316 kts 243°
2026-05-07 20:07 52.89707 13.56607 10093 ft 299 kts 243°
2026-05-07 20:08 52.88741 13.53588 10106 ft 295 kts 243°
2026-05-07 20:08 52.87778 13.50617 10100 ft 294 kts 243°
2026-05-07 20:08 52.86797 13.47626 10108 ft 294 kts 243°
2026-05-07 20:08 52.85826 13.44689 10109 ft 294 kts 243°
2026-05-07 20:09 52.84833 13.41702 10114 ft 294 kts 242°
2026-05-07 20:09 52.83854 13.38768 10109 ft 294 kts 242°
2026-05-07 20:09 52.82873 13.35835 10101 ft 293 kts 242°
2026-05-07 20:10 52.80887 13.29913 10105 ft 294 kts 242°
2026-05-07 20:10 52.79896 13.26965 10109 ft 294 kts 242°
2026-05-07 20:10 52.78897 13.23996 10107 ft 294 kts 242°
2026-05-07 20:10 52.77911 13.21071 10107 ft 294 kts 242°
2026-05-07 20:11 52.76909 13.18104 10107 ft 294 kts 242°
2026-05-07 20:11 52.75915 13.15163 10112 ft 294 kts 242°
2026-05-07 20:11 52.74921 13.12220 10105 ft 294 kts 242°
2026-05-07 20:11 52.73930 13.09290 10105 ft 294 kts 242°
2026-05-07 20:12 52.72944 13.06380 10109 ft 294 kts 242°
2026-05-07 20:12 52.71940 13.03417 10118 ft 294 kts 242°
2026-05-07 20:12 52.70950 13.00502 10106 ft 294 kts 242°
2026-05-07 20:12 52.69946 12.97551 10109 ft 294 kts 242°
2026-05-07 20:13 52.68950 12.94625 10110 ft 294 kts 242°
2026-05-07 20:13 52.67950 12.91693 10115 ft 293 kts 242°
2026-05-07 20:13 52.66959 12.88791 10114 ft 293 kts 242°
2026-05-07 20:13 52.65958 12.85864 10111 ft 293 kts 242°
2026-05-07 20:14 52.64954 12.82931 10111 ft 293 kts 242°
2026-05-07 20:14 52.63868 12.80089 10107 ft 294 kts 229°
2026-05-07 20:14 52.62307 12.78004 10109 ft 294 kts 207°
2026-05-07 20:14 52.60372 12.76958 10113 ft 294 kts 186°
2026-05-07 20:15 52.58341 12.77090 10117 ft 293 kts 166°
2026-05-07 20:15 52.56471 12.78363 10119 ft 290 kts 146°
2026-05-07 20:15 52.54847 12.80294 10126 ft 290 kts 141°
2026-05-07 20:15 52.53249 12.82299 10123 ft 290 kts 141°
2026-05-07 20:16 52.51645 12.84293 10129 ft 290 kts 142°
2026-05-07 20:16 52.50024 12.86279 10118 ft 290 kts 142°
2026-05-07 20:16 52.48407 12.88244 10119 ft 290 kts 142°
2026-05-07 20:16 52.46789 12.90201 10121 ft 290 kts 142°
2026-05-07 20:17 52.45181 12.92142 10136 ft 281 kts 142°
2026-05-07 20:17 52.43644 12.93993 10119 ft 266 kts 142°
2026-05-07 20:17 52.42194 12.95737 10118 ft 256 kts 142°
2026-05-07 20:17 52.40754 12.97470 10118 ft 256 kts 142°
2026-05-07 20:18 52.39320 12.99196 10114 ft 257 kts 142°
2026-05-07 20:18 52.37780 13.00660 10114 ft 259 kts 159°
2026-05-07 20:18 52.36031 13.01309 10119 ft 260 kts 175°
2026-05-07 20:18 52.34269 13.00774 10106 ft 260 kts 210°
2026-05-07 20:19 52.32986 12.98772 10108 ft 259 kts 243°
2026-05-07 20:19 52.32494 12.95968 10127 ft 257 kts 265°
2026-05-07 20:19 52.32233 12.93111 10122 ft 258 kts 258°
2026-05-07 20:19 52.31697 12.90309 10118 ft 258 kts 251°
2026-05-07 20:20 52.31060 12.87594 10116 ft 258 kts 250°
2026-05-07 20:20 52.30395 12.84867 10119 ft 258 kts 249°
2026-05-07 20:20 52.29725 12.82140 10113 ft 258 kts 249°
2026-05-07 20:20 52.29063 12.79444 10118 ft 258 kts 249°
2026-05-07 20:21 52.28399 12.76739 10117 ft 258 kts 249°
2026-05-07 20:21 52.27732 12.74016 10116 ft 258 kts 250°
2026-05-07 20:21 52.27068 12.71310 10114 ft 258 kts 250°
2026-05-07 20:21 52.26400 12.68592 10114 ft 258 kts 249°
2026-05-07 20:22 52.25623 12.65942 10032 ft 261 kts 233°
2026-05-07 20:22 52.24194 12.64200 9655 ft 262 kts 196°
2026-05-07 20:22 52.22439 12.64137 9321 ft 257 kts 161°
2026-05-07 20:22 52.20808 12.65277 9041 ft 252 kts 154°
2026-05-07 20:23 52.19216 12.66455 8736 ft 251 kts 154°
2026-05-07 20:23 52.17702 12.67836 8419 ft 253 kts 145°
2026-05-07 20:23 52.16248 12.69440 8102 ft 257 kts 139°
2026-05-07 20:23 52.15145 12.71669 7724 ft 251 kts 110°
2026-05-07 20:24 52.14854 12.74398 7305 ft 245 kts 83°
2026-05-07 20:24 52.15391 12.76950 6840 ft 241 kts 53°
2026-05-07 20:24 52.16530 12.78872 6302 ft 237 kts 43°
2026-05-07 20:24 52.17747 12.80691 5776 ft 233 kts 43°
2026-05-07 20:25 52.18903 12.82416 5502 ft 218 kts 43°
2026-05-07 20:25 52.19825 12.84263 5226 ft 206 kts 68°
2026-05-07 20:25 52.20310 12.86388 4967 ft 195 kts 68°
2026-05-07 20:25 52.20809 12.88420 4543 ft 194 kts 67°
2026-05-07 20:26 52.21317 12.90483 3838 ft 206 kts 67°
2026-05-07 20:26 52.21856 12.92707 3265 ft 213 kts 67°
2026-05-07 20:26 52.22392 12.94961 3020 ft 213 kts 68°
2026-05-07 20:26 52.22924 12.97227 3019 ft 214 kts 68°
2026-05-07 20:27 52.23451 12.99495 3014 ft 215 kts 68°
2026-05-07 20:27 52.23978 13.01776 3017 ft 214 kts 68°
2026-05-07 20:27 52.24502 13.04048 3014 ft 214 kts 68°
2026-05-07 20:27 52.25022 13.06302 3016 ft 214 kts 68°
2026-05-07 20:28 52.25548 13.08581 3014 ft 214 kts 68°
2026-05-07 20:28 52.26079 13.10863 3014 ft 215 kts 68°
2026-05-07 20:28 52.26608 13.13142 3024 ft 214 kts 70°
2026-05-07 20:28 52.27131 13.15400 3026 ft 214 kts 68°
2026-05-07 20:29 52.27662 13.17676 3018 ft 214 kts 68°
2026-05-07 20:29 52.28194 13.19947 3015 ft 214 kts 68°
2026-05-07 20:29 52.28720 13.22189 3011 ft 214 kts 68°
2026-05-07 20:29 52.29253 13.24461 2995 ft 215 kts 68°
2026-05-07 20:30 52.29785 13.26721 2786 ft 210 kts 68°
2026-05-07 20:30 52.30304 13.28926 2505 ft 209 kts 68°
2026-05-07 20:30 52.30828 13.31146 2222 ft 207 kts 67°
2026-05-07 20:30 52.31339 13.33314 1934 ft 199 kts 67°
2026-05-07 20:31 52.31816 13.35338 1660 ft 184 kts 67°
2026-05-07 20:31 52.32256 13.37201 1514 ft 165 kts 67°
2026-05-07 20:31 52.32649 13.38862 1239 ft 151 kts 67°
2026-05-07 20:31 52.33017 13.40412 1018 ft 146 kts 67°
2026-05-07 20:32 52.33375 13.41922 817 ft 137 kts 67°
2026-05-07 20:32 52.33717 13.43364 638 ft 135 kts 67°
2026-05-07 20:32 52.34052 13.44777 465 ft 134 kts 68°
2026-05-07 20:32 52.34391 13.46205 284 ft 134 kts 68°
2026-05-07 20:33 52.34719 13.47618 177 ft 134 kts 69°
2026-05-07 20:33 52.35030 13.48869 166 ft 90 kts 62°
2026-05-07 20:33 52.35211 13.49558 166 ft 58 kts 68°
2026-05-07 20:33 52.35348 13.49956 166 ft 33 kts 43°
2026-05-07 20:34 52.35472 13.50125 166 ft 12 kts 38°
2026-05-07 20:34 52.35520 13.50186 166 ft 0 kts 37°
2026-05-07 20:34 52.35525 13.50192 166 ft 2 kts 37°
2026-05-07 20:35 52.35546 13.50219 166 ft 5 kts 37°
2026-05-07 20:35 52.35585 13.50268 166 ft 8 kts 39°
2026-05-07 20:35 52.35619 13.50360 166 ft 10 kts 69°
2026-05-07 20:35 52.35649 13.50489 166 ft 12 kts 69°
2026-05-07 20:36 52.35675 13.50608 166 ft 7 kts 69°
2026-05-07 20:36 52.35702 13.50680 166 ft 8 kts 29°
2026-05-07 20:36 52.35772 13.50668 166 ft 11 kts 339°
2026-05-07 20:36 52.35840 13.50633 166 ft 11 kts 359°
2026-05-07 20:37 52.35912 13.50651 166 ft 10 kts
2026-05-07 20:37 52.35988 13.50610 166 ft 12 kts 337°
2026-05-07 20:37 52.36068 13.50556 166 ft 9 kts 338°
2026-05-07 20:37 52.36128 13.50516 166 ft 9 kts 337°
2026-05-07 20:38 52.36177 13.50486 166 ft 6 kts 342°
2026-05-07 20:38 52.36221 13.50479 166 ft 7 kts 14°
2026-05-07 20:38 52.36257 13.50545 166 ft 7 kts 64°
2026-05-07 20:38 52.36275 13.50617 166 ft 6 kts 68°
2026-05-07 20:39 52.36283 13.50655 166 ft 0 kts 69°